TimeEST,TemperatureF,Dew PointF,Humidity,Sea Level PressureIn,VisibilityMPH,Wind Direction,Wind SpeedMPH,Gust SpeedMPH,PrecipitationIn,Events,Conditions,WindDirDegrees,DateUTC
12:55 AM,39.2,39.2,100,29.86,10.0,SW,5.8,-,N/A,Rain,Light Rain,230,2012-12-11 05:55:00
1:15 AM,39.2,39.2,100,29.86,10.0,WSW,4.6,-,N/A,,Overcast,250,2012-12-11 06:15:00
1:35 AM,39.2,39.2,100,29.86,10.0,West,4.6,-,N/A,,Overcast,260,2012-12-11 06:35:00
1:55 AM,39.2,37.4,93,29.87,8.0,WSW,4.6,-,N/A,Rain,Light Rain,250,2012-12-11 06:55:00
2:15 AM,39.2,37.4,93,29.87,4.0,SW,5.8,-,N/A,Rain,Light Rain,220,2012-12-11 07:15:00
2:35 AM,39.2,39.2,100,29.87,4.0,WSW,6.9,-,N/A,,Overcast,240,2012-12-11 07:35:00
2:55 AM,39.2,37.4,93,29.88,3.0,West,5.8,-,N/A,Rain,Light Rain,270,2012-12-11 07:55:00
3:15 AM,37.4,37.4,100,29.88,2.5,West,9.2,-,N/A,Rain,Light Rain,270,2012-12-11 08:15:00
3:35 AM,37.4,37.4,100,29.88,2.0,West,4.6,-,N/A,,Overcast,280,2012-12-11 08:35:00
3:55 AM,37.4,37.4,100,29.89,2.5,West,4.6,-,N/A,,Overcast,280,2012-12-11 08:55:00
4:15 AM,37.4,37.4,100,29.89,3.0,West,4.6,-,N/A,,Overcast,280,2012-12-11 09:15:00
4:35 AM,37.4,37.4,100,29.90,9.0,West,5.8,-,N/A,,Overcast,280,2012-12-11 09:35:00
4:55 AM,37.4,37.4,100,29.91,9.0,West,3.5,-,N/A,,Overcast,280,2012-12-11 09:55:00
5:15 AM,37.4,35.6,93,29.91,8.0,West,5.8,-,N/A,,Overcast,280,2012-12-11 10:15:00
5:35 AM,37.4,35.6,93,29.91,6.0,West,5.8,-,N/A,Rain,Light Rain,260,2012-12-11 10:35:00
5:55 AM,37.4,35.6,93,29.92,4.0,West,4.6,-,N/A,,Light Drizzle,260,2012-12-11 10:55:00
6:15 AM,37.4,37.4,100,29.93,10.0,West,4.6,-,N/A,,Overcast,260,2012-12-11 11:15:00
6:35 AM,37.4,35.6,93,29.95,10.0,Variable,3.5,-,N/A,,Overcast,0,2012-12-11 11:35:00
6:55 AM,37.4,35.6,93,29.96,9.0,SW,4.6,-,N/A,,Overcast,230,2012-12-11 11:55:00
7:15 AM,37.4,35.6,93,29.96,10.0,WSW,4.6,-,N/A,,Overcast,240,2012-12-11 12:15:00
7:35 AM,37.4,35.6,93,29.97,10.0,WSW,4.6,-,N/A,,Overcast,250,2012-12-11 12:35:00
7:55 AM,37.4,35.6,93,29.98,10.0,West,5.8,-,N/A,Rain,Light Rain,280,2012-12-11 12:55:00
8:15 AM,37.4,35.6,93,29.99,10.0,West,5.8,-,N/A,Rain,Light Rain,270,2012-12-11 13:15:00
8:35 AM,37.4,35.6,93,30.00,10.0,WSW,5.8,-,N/A,,Overcast,250,2012-12-11 13:35:00
8:55 AM,37.4,33.8,87,30.00,10.0,West,8.1,-,N/A,,Overcast,270,2012-12-11 13:55:00
9:15 AM,37.4,35.6,93,30.02,10.0,WNW,6.9,-,N/A,Rain,Light Rain,290,2012-12-11 14:15:00
9:35 AM,35.6,33.8,93,30.02,7.0,WNW,6.9,-,N/A,Rain,Light Rain,300,2012-12-11 14:35:00
9:55 AM,37.4,33.8,87,30.03,10.0,West,5.8,-,N/A,,Overcast,280,2012-12-11 14:55:00
10:15 AM,37.4,32.0,81,30.05,10.0,Variable,4.6,-,N/A,,Overcast,0,2012-12-11 15:15:00
10:35 AM,37.4,32.0,81,30.05,10.0,NW,4.6,-,N/A,,Overcast,310,2012-12-11 15:35:00
10:55 AM,37.4,33.8,87,30.05,10.0,WNW,4.6,-,N/A,,Overcast,290,2012-12-11 15:55:00
11:15 AM,37.4,32.0,81,30.05,10.0,West,5.8,-,N/A,,Overcast,280,2012-12-11 16:15:00
11:35 AM,37.4,32.0,81,30.05,10.0,Variable,3.5,-,N/A,,Overcast,0,2012-12-11 16:35:00
11:55 AM,37.4,32.0,81,30.05,10.0,WNW,6.9,-,N/A,,Overcast,290,2012-12-11 16:55:00
12:15 PM,37.4,32.0,81,30.04,10.0,Variable,4.6,-,N/A,,Overcast,0,2012-12-11 17:15:00
12:35 PM,37.4,32.0,81,30.05,10.0,West,4.6,-,N/A,,Overcast,280,2012-12-11 17:35:00
12:55 PM,37.4,33.8,87,30.04,10.0,West,5.8,-,N/A,,Overcast,270,2012-12-11 17:55:00
1:15 PM,37.4,32.0,81,30.05,10.0,WNW,4.6,-,N/A,Rain,Light Rain,300,2012-12-11 18:15:00
1:35 PM,37.4,32.0,81,30.04,10.0,WNW,5.8,-,N/A,,Overcast,300,2012-12-11 18:35:00
1:55 PM,37.4,30.2,75,30.05,10.0,WNW,8.1,-,N/A,,Overcast,300,2012-12-11 18:55:00
2:15 PM,37.4,30.2,75,30.06,10.0,Calm,Calm,-,N/A,,Overcast,0,2012-12-11 19:15:00
2:35 PM,39.2,30.2,70,30.06,10.0,Calm,Calm,-,N/A,,Overcast,0,2012-12-11 19:35:00
2:55 PM,39.2,30.2,70,30.06,10.0,West,3.5,-,N/A,,Overcast,280,2012-12-11 19:55:00
3:15 PM,39.2,30.2,70,30.06,10.0,Variable,3.5,-,N/A,,Overcast,0,2012-12-11 20:15:00
3:35 PM,39.2,30.2,70,30.07,10.0,West,4.6,-,N/A,,Overcast,280,2012-12-11 20:35:00
3:55 PM,39.2,30.2,70,30.07,10.0,Calm,Calm,-,N/A,,Overcast,0,2012-12-11 20:55:00
4:15 PM,39.2,30.2,70,30.08,10.0,West,3.5,-,N/A,,Overcast,260,2012-12-11 21:15:00
4:35 PM,39.2,30.2,70,30.09,10.0,West,4.6,-,N/A,,Overcast,280,2012-12-11 21:35:00
4:55 PM,37.4,30.2,75,30.09,10.0,West,3.5,-,N/A,,Overcast,280,2012-12-11 21:55:00
5:15 PM,37.4,30.2,75,30.10,10.0,West,3.5,-,N/A,,Overcast,260,2012-12-11 22:15:00
5:35 PM,37.4,30.2,75,30.11,10.0,WSW,4.6,-,N/A,,Overcast,250,2012-12-11 22:35:00
5:55 PM,37.4,32.0,81,30.10,10.0,Calm,Calm,-,N/A,,Overcast,0,2012-12-11 22:55:00
6:15 PM,37.4,30.2,75,30.11,10.0,West,3.5,-,N/A,,Overcast,280,2012-12-11 23:15:00
6:35 PM,37.4,30.2,75,30.11,10.0,Calm,Calm,-,N/A,,Overcast,0,2012-12-11 23:35:00
6:55 PM,37.4,32.0,81,30.12,10.0,WSW,4.6,-,N/A,,Overcast,240,2012-12-11 23:55:00
7:15 PM,37.4,33.8,87,30.12,10.0,WSW,3.5,-,N/A,,Overcast,250,2012-12-12 00:15:00
7:35 PM,37.4,33.8,87,30.14,10.0,WSW,4.6,-,N/A,,Overcast,250,2012-12-12 00:35:00
7:55 PM,37.4,33.8,87,30.14,10.0,WSW,4.6,-,N/A,,Overcast,240,2012-12-12 00:55:00
8:15 PM,37.4,32.0,81,30.14,10.0,WSW,4.6,-,N/A,,Overcast,250,2012-12-12 01:15:00
8:35 PM,35.6,32.0,87,30.13,10.0,WSW,3.5,-,N/A,,Overcast,250,2012-12-12 01:35:00
8:55 PM,35.6,32.0,87,30.14,10.0,WSW,3.5,-,N/A,,Overcast,240,2012-12-12 01:55:00
9:15 PM,35.6,30.2,81,30.15,10.0,Calm,Calm,-,N/A,,Mostly Cloudy,0,2012-12-12 02:15:00
9:35 PM,35.6,30.2,81,30.14,10.0,WSW,3.5,-,N/A,,Clear,250,2012-12-12 02:35:00
9:55 PM,33.8,30.2,87,30.14,10.0,Calm,Calm,-,N/A,,Clear,0,2012-12-12 02:55:00
10:15 PM,32.0,30.2,93,30.16,10.0,Calm,Calm,-,N/A,,Clear,0,2012-12-12 03:15:00
10:35 PM,32.0,30.2,93,30.16,10.0,Calm,Calm,-,N/A,,Clear,0,2012-12-12 03:35:00
10:55 PM,32.0,30.2,93,30.17,10.0,Calm,Calm,-,N/A,,Clear,0,2012-12-12 03:55:00
11:15 PM,30.2,30.2,100,30.16,10.0,Calm,Calm,-,N/A,,Clear,0,2012-12-12 04:15:00
11:35 PM,32.0,30.2,93,30.17,10.0,Calm,Calm,-,N/A,,Clear,0,2012-12-12 04:35:00
11:55 PM,30.2,30.2,100,30.17,10.0,Calm,Calm,-,N/A,,Clear,0,2012-12-12 04:55:00